Theta_e
354 353 353 352 352 352 350 350 349 348 349 349 350 351 351 352 352 351 351 351 353 356 357 354 352 352 349 346 347 347 345 344 344 344 344 343 347 351 353 353 356 358 359 360 361 360 358 359 361 361 358 357 356 356 356 358 361 361 358 359 360 352 347 345 346 346 346 345 344 344 344 346 347 349 350 349 350 350 350 349 348 347 347 347 347
354 353 353 352 351 352 351 350 350 348 350 351 352 352 352 353 353 354 354 352 354 357 356 352 351 351 348 345 343 343 343 343 343 344 342 343 347 351 352 352 355 357 359 359 359 357 357 361 364 362 360 359 358 356 357 360 361 360 357 357 357 353 348 346 346 347 346 345 345 345 345 345 347 348 349 347 346 347 347 346 345 345 345 345 346
355 352 353 354 352 353 352 351 351 350 352 353 353 354 353 353 354 354 355 355 356 357 357 353 351 350 347 345 342 341 342 342 342 342 342 342 347 351 350 349 354 357 358 358 358 358 358 360 363 362 362 360 361 361 360 362 364 362 357 356 356 353 348 347 347 347 346 343 345 346 345 346 347 347 347 346 345 344 344 344 344 344 344 343 345
356 353 352 353 353 354 353 353 353 352 353 353 354 356 355 354 355 356 356 356 357 358 357 354 352 351 349 346 343 341 342 343 343 343 344 343 346 351 350 347 351 354 357 359 359 358 359 360 361 362 363 361 362 365 363 362 363 361 358 358 356 352 348 346 346 345 345 345 346 346 344 346 348 347 345 344 344 344 344 343 342 343 345 344 345
355 354 352 353 354 355 355 355 355 354 355 355 355 356 356 356 356 358 357 357 357 358 358 355 355 355 353 350 347 343 344 345 346 346 347 347 346 350 351 348 349 351 356 358 358 358 359 360 360 361 363 362 361 362 360 360 359 357 358 358 357 354 351 346 344 345 345 346 346 346 345 346 345 343 344 345 344 342 342 342 342 342 345 345 345
354 354 352 353 354 356 356 356 356 355 356 356 356 357 358 357 358 359 358 357 357 358 358 357 357 357 356 354 351 348 348 349 350 348 347 349 346 345 350 350 348 349 354 357 358 358 359 361 360 359 361 361 361 360 358 358 358 357 358 357 357 358 356 348 346 346 345 344 345 346 345 345 344 343 346 347 346 343 341 341 340 342 344 344 344
355 354 352 352 355 357 357 357 356 356 356 357 357 358 359 359 360 360 360 358 357 357 358 358 358 359 357 355 353 350 351 352 353 349 345 346 346 344 347 350 349 349 352 357 358 359 359 361 361 360 359 359 360 358 358 357 358 358 359 359 359 360 360 355 347 346 348 346 344 344 343 344 344 344 346 348 347 346 343 341 341 340 343 345 345
354 353 352 354 356 357 357 357 357 356 357 357 357 358 359 361 361 361 361 360 358 358 359 358 358 359 358 355 353 351 350 351 352 349 345 345 347 346 346 348 349 349 352 356 358 359 360 360 361 360 358 358 358 358 357 356 358 360 359 361 362 362 363 359 350 347 349 348 346 345 345 345 345 344 346 347 348 349 346 343 342 341 342 342 343
354 352 353 355 356 358 358 358 358 356 357 357 357 358 359 361 362 362 362 360 359 360 360 359 358 358 358 355 354 352 349 349 349 349 347 347 349 350 347 346 349 352 353 355 358 360 360 360 360 361 358 358 357 356 355 354 356 359 360 362 363 364 364 360 355 352 348 346 348 348 347 347 346 345 345 346 347 349 347 345 343 342 344 342 341
352 351 354 357 357 358 358 358 359 357 356 358 358 358 359 361 364 362 362 362 360 361 361 360 359 358 357 356 355 354 352 349 349 351 351 349 352 353 351 349 350 354 355 355 358 360 359 360 360 360 359 357 357 356 355 354 356 358 360 361 362 365 365 360 357 355 351 349 350 351 351 350 349 347 346 346 347 347 346 345 344 343 344 343 342
352 351 354 358 360 359 358 358 359 357 357 357 358 359 359 361 363 364 363 362 361 362 361 361 359 357 358 356 356 356 355 353 350 352 354 353 354 355 354 352 350 352 354 355 356 358 359 359 359 359 358 357 357 357 355 355 354 355 357 359 359 362 364 362 358 356 355 354 352 352 353 350 348 347 345 345 345 346 348 347 345 343 342 343 343
353 353 355 358 360 360 359 360 360 357 357 358 358 359 360 361 362 364 364 362 362 361 362 361 359 358 357 357 358 358 358 356 353 354 356 357 356 356 355 355 353 350 351 352 355 356 358 359 358 358 359 358 358 358 357 355 356 355 355 358 359 360 361 361 360 357 356 355 352 350 350 347 346 345 344 344 345 346 346 346 345 343 343 344 342
352 353 357 359 359 359 360 361 360 359 358 358 359 360 361 361 363 365 364 364 363 362 362 361 360 358 357 357 358 359 360 358 356 356 358 359 359 357 356 357 356 353 350 351 353 354 356 358 358 358 359 360 359 358 358 358 359 358 357 358 358 360 360 360 360 359 356 355 353 348 347 346 345 344 343 343 344 344 345 345 345 344 344 345 342
352 352 355 359 360 360 362 362 362 362 359 359 360 359 361 362 364 365 365 365 364 364 363 361 360 359 358 358 358 358 359 360 360 358 359 360 359 358 356 357 359 356 352 351 352 354 355 357 359 359 359 360 361 360 359 360 360 360 358 358 358 359 360 360 360 360 358 357 354 351 348 346 345 345 343 343 342 344 344 346 347 347 346 344 344
354 354 355 359 361 362 362 362 363 363 360 360 360 361 362 363 366 367 366 366 366 364 363 362 361 360 359 358 358 358 358 359 361 360 359 360 358 357 355 355 357 356 354 353 354 354 355 357 359 360 360 361 362 361 360 360 361 361 360 359 358 358 359 359 360 359 359 358 357 355 353 349 346 346 345 346 344 344 346 347 348 349 349 348 346
352 352 355 360 363 363 363 361 362 363 361 361 360 362 362 364 366 367 367 367 367 366 365 362 362 361 360 359 358 359 359 359 361 362 361 360 358 357 356 355 354 354 355 356 356 356 356 358 359 360 360 360 361 362 360 360 360 361 361 361 360 358 359 360 360 360 360 358 358 357 357 354 351 349 348 348 347 349 350 349 347 348 351 352 350
352 353 356 360 362 363 364 362 362 363 362 361 362 362 364 365 367 368 368 368 367 367 366 363 363 361 360 360 359 359 359 359 360 362 362 360 359 358 357 357 355 353 354 356 358 359 357 358 359 359 360 360 360 361 361 360 360 361 360 362 361 358 358 360 360 359 358 358 358 358 359 359 356 355 354 352 352 354 353 351 349 348 349 351 351
352 354 358 360 360 363 364 363 363 363 362 363 362 364 365 366 368 369 369 369 368 368 365 364 363 362 360 359 359 359 359 359 360 361 361 361 360 360 358 358 357 353 353 354 356 359 359 359 358 357 358 360 359 359 360 360 360 361 360 360 361 360 359 361 361 360 359 358 358 358 359 359 358 358 356 353 356 357 356 355 353 350 349 350 351
350 352 356 357 360 363 364 363 363 363 364 363 364 365 365 366 368 369 369 368 368 367 364 364 363 361 360 360 360 360 360 360 360 361 362 361 360 360 358 357 357 355 354 354 356 358 359 360 360 357 357 359 359 359 360 360 361 361 359 359 359 361 361 362 362 361 359 358 359 359 359 358 358 358 357 355 356 359 359 358 358 356 354 353 352
351 350 351 352 356 362 363 363 363 363 365 365 364 365 365 366 367 368 369 369 369 367 365 364 363 360 360 360 360 361 360 361 361 361 363 362 361 361 359 357 357 357 355 355 356 356 358 359 359 357 355 356 358 359 359 360 360 361 359 357 357 359 361 361 360 360 359 358 359 360 359 359 359 359 359 357 356 358 360 359 359 359 359 357 356
349 351 349 350 354 361 362 363 362 362 364 364 364 365 364 365 366 368 368 369 369 367 365 364 362 361 361 361 361 361 361 362 362 362 363 363 361 361 359 357 356 357 357 356 356 357 357 358 357 355 354 354 357 358 358 360 361 361 360 358 356 358 361 361 360 360 359 359 359 360 361 360 360 360 361 358 356 358 360 360 360 360 360 360 360
346 349 350 349 351 357 361 361 360 360 363 364 364 364 364 365 366 367 368 368 368 366 365 364 363 361 362 362 362 362 361 362 362 363 363 362 362 362 360 359 357 357 357 357 358 358 356 358 356 355 355 355 356 358 358 358 360 361 360 359 358 359 361 362 361 361 361 361 361 362 362 362 361 361 360 359 357 356 357 359 359 359 360 360 360
344 345 345 348 350 356 361 362 360 360 362 363 363 364 364 364 365 366 367 367 367 365 365 365 363 363 363 363 363 362 362 362 362 363 363 362 362 363 362 360 358 357 358 358 359 359 357 358 357 356 357 356 356 359 358 357 358 361 361 359 357 358 361 361 361 360 361 361 361 362 362 362 360 360 361 361 358 356 355 356 357 358 358 358 358
345 343 345 347 349 356 361 361 362 361 361 362 363 364 364 365 365 366 366 366 366 364 364 365 365 364 364 365 363 363 362 362 362 362 362 361 363 364 363 361 359 357 357 358 359 360 360 360 358 357 359 358 358 360 360 357 357 360 362 361 359 359 360 361 359 359 360 360 361 362 361 360 359 360 362 362 360 358 357 356 356 356 356 356 356
344 344 345 345 349 358 364 365 365 362 362 362 363 364 364 364 364 364 365 365 365 363 365 366 365 365 364 364 364 363 362 362 362 361 361 361 361 362 362 362 360 357 357 358 359 359 361 362 361 360 361 361 361 361 360 358 357 359 362 362 361 360 361 362 361 360 361 361 360 362 361 360 359 360 361 362 361 359 359 358 359 359 359 359 359
346 345 345 347 356 364 366 368 365 362 362 363 363 364 363 364 363 364 365 364 363 363 364 366 365 364 364 364 364 362 362 363 361 360 360 361 359 358 361 362 360 357 356 358 361 361 361 364 364 362 362 363 363 362 362 360 357 357 360 361 360 360 361 362 362 361 361 360 361 361 361 360 360 360 360 361 361 360 361 361 361 361 361 362 363
348 348 348 351 361 367 367 367 365 361 360 362 363 363 363 364 363 364 364 364 364 363 364 366 366 364 365 365 365 362 362 362 362 360 360 361 358 357 358 360 360 358 356 356 360 362 361 362 365 364 364 364 364 363 364 363 358 356 359 360 359 359 360 361 362 362 360 358 360 360 360 359 360 360 360 360 360 361 362 362 362 363 363 363 364
349 351 353 355 360 367 367 364 364 362 360 361 362 363 362 362 364 364 363 363 363 362 363 366 365 364 365 367 366 363 361 362 363 362 360 360 358 356 356 359 360 359 357 356 357 360 361 362 364 364 364 365 365 365 364 365 362 358 358 360 360 359 359 360 361 361 357 355 355 356 358 358 360 361 362 361 360 360 361 362 363 363 364 364 365
343 347 352 355 359 366 367 364 363 363 361 359 361 362 362 363 364 363 364 363 363 363 363 366 366 366 367 367 367 365 363 362 363 363 361 359 358 358 356 358 361 360 358 355 354 357 361 362 362 365 364 363 364 366 365 365 365 361 358 359 361 361 358 358 359 359 357 354 353 352 352 354 357 359 362 363 362 361 361 362 363 365 365 364 365
340 344 349 352 356 362 366 367 366 364 361 360 361 362 363 362 363 364 362 362 363 363 363 366 367 366 368 368 368 367 365 363 364 363 362 361 360 359 358 358 361 361 359 358 355 355 359 361 363 364 364 364 363 365 365 364 364 363 360 358 359 362 360 357 358 359 357 354 354 353 351 349 352 355 357 360 362 360 359 356 356 360 364 365 365
343 344 347 351 353 357 364 367 368 364 362 359 360 362 362 362 363 362 362 363 363 364 365 366 368 368 369 369 370 368 366 364 364 365 364 362 361 360 360 360 362 363 362 360 358 355 356 359 361 364 365 364 363 363 364 362 360 360 361 360 358 360 361 359 358 358 358 354 353 353 353 353 352 353 356 357 358 358 355 351 349 350 354 359 362
346 349 352 355 354 354 359 364 364 363 362 359 360 361 362 362 362 362 362 362 363 366 365 367 368 368 369 371 371 370 368 366 366 368 367 365 363 362 362 362 362 363 364 362 360 359 358 357 359 362 363 363 362 361 362 362 359 356 357 360 358 357 360 362 359 358 358 357 353 351 351 352 353 355 358 358 359 358 355 352 350 349 348 349 352
347 350 352 356 356 355 356 361 363 362 359 358 359 361 361 362 362 362 362 362 363 365 366 367 368 369 371 372 372 372 370 368 368 370 369 368 365 364 364 364 364 365 365 364 362 361 360 359 358 359 362 362 362 362 361 360 359 355 353 356 358 357 357 359 360 358 357 358 358 355 351 351 352 353 357 361 363 364 362 359 357 356 354 351 349
350 351 352 355 362 364 363 363 362 362 360 359 357 360 361 362 362 362 362 362 363 365 367 367 369 370 372 371 372 372 371 370 370 371 371 370 367 367 367 367 366 366 366 366 365 363 362 361 360 359 361 362 360 362 362 360 359 357 353 352 356 357 357 357 359 361 359 358 359 360 357 355 354 354 356 362 366 367 367 366 364 363 362 358 354
354 357 357 359 363 366 367 365 361 358 361 360 357 358 360 361 361 362 362 363 364 365 367 369 369 370 371 371 372 372 372 372 372 371 372 371 369 369 369 368 367 366 367 368 366 365 365 364 363 361 361 362 360 360 362 362 360 359 356 353 354 357 357 357 358 360 362 362 362 363 362 360 359 359 359 361 365 366 367 368 367 367 366 364 362
354 355 358 361 362 363 366 368 363 358 357 360 359 356 360 362 362 363 363 363 363 365 367 369 369 370 371 371 371 372 372 373 372 372 372 371 370 370 370 369 367 365 366 368 367 366 366 366 365 363 361 361 360 359 361 363 361 360 358 356 355 357 358 358 359 360 361 363 364 364 365 364 364 364 362 360 362 364 366 367 367 367 366 366 365
354 355 357 360 361 363 365 365 363 358 355 359 360 356 358 361 362 363 364 363 364 366 368 369 369 370 372 372 372 372 372 372 372 372 372 371 372 371 370 369 368 365 365 367 367 366 366 366 366 365 363 362 361 359 360 360 361 361 359 357 357 359 360 360 360 361 361 362 364 364 365 366 366 366 364 361 360 362 364 365 364 364 365 364 364
354 357 357 358 361 363 363 363 360 357 353 356 360 358 358 362 362 364 365 364 364 366 368 369 370 370 372 372 371 372 372 372 373 373 372 371 371 371 371 370 369 366 364 363 366 366 366 366 366 366 366 364 361 360 359 359 359 359 359 358 359 361 361 361 361 362 362 363 363 363 364 365 367 367 364 362 361 363 364 364 363 363 363 364 364
355 356 357 358 359 362 362 362 359 354 351 355 359 359 358 362 363 364 364 364 364 366 370 370 370 370 371 372 371 372 373 372 373 372 372 372 371 370 370 370 368 367 363 361 363 364 365 365 366 365 366 365 362 360 360 360 360 359 358 358 360 361 361 362 362 362 363 363 363 364 363 363 364 366 365 364 364 363 364 364 364 363 364 363 364
354 356 357 358 359 360 362 361 358 353 352 355 359 359 359 362 365 365 364 365 366 367 369 370 370 370 371 371 372 372 372 372 373 372 371 371 370 370 370 369 368 366 365 362 361 361 363 363 364 363 364 365 364 362 362 361 360 359 358 358 361 362 362 363 364 363 364 364 363 364 364 363 361 361 361 363 364 364 364 363 364 364 364 365 365
353 355 357 358 359 361 362 360 357 354 354 357 359 360 361 362 365 365 365 364 366 367 369 370 370 369 370 371 371 371 371 371 371 371 370 370 370 369 369 368 368 366 365 363 362 360 361 362 362 362 362 363 364 364 364 363 362 361 359 358 360 362 363 363 365 364 364 364 364 364 365 365 363 360 359 359 360 361 362 363 362 363 363 365 365
352 355 357 359 358 359 362 360 356 355 356 358 359 360 364 364 366 366 366 365 366 368 369 370 371 369 369 371 370 370 372 370 370 371 371 369 370 369 368 368 367 366 366 365 364 363 361 361 361 362 362 362 363 364 364 364 363 362 360 358 359 361 362 363 365 365 364 364 364 365 365 365 365 363 361 359 358 358 359 360 360 360 360 362 362
350 353 357 360 360 361 361 359 357 357 358 357 359 362 364 365 366 366 365 365 367 368 369 371 370 369 369 370 369 370 370 369 369 371 371 369 370 369 367 368 368 367 367 367 367 366 364 362 362 363 363 364 364 364 363 363 363 362 361 360 359 360 361 363 364 365 365 364 363 364 364 365 365 364 363 361 360 358 357 357 357 356 357 357 357
348 352 357 360 362 362 360 358 356 357 357 357 360 363 365 365 367 367 365 366 367 368 369 370 370 369 369 369 368 370 370 368 369 371 371 371 370 368 368 368 368 367 367 366 367 368 366 364 364 365 365 365 365 365 365 364 363 363 362 361 360 359 359 361 363 364 363 362 363 362 363 363 362 362 361 361 360 359 357 356 356 355 355 355 354
346 350 356 360 361 361 361 360 358 357 358 360 360 362 364 367 367 367 365 366 368 369 370 371 370 369 369 369 368 369 369 367 369 371 371 371 370 369 368 368 368 368 367 367 368 367 367 366 366 366 366 365 365 366 365 364 364 363 362 361 361 359 359 358 361 362 362 362 361 361 361 361 361 360 360 360 360 359 358 356 355 355 354 354 354
345 348 353 359 362 361 363 364 361 358 359 361 361 361 365 367 368 367 366 366 368 369 370 370 370 368 368 368 368 369 368 368 368 370 371 371 369 369 368 368 368 368 368 367 367 366 366 366 365 366 366 365 365 365 366 365 364 363 363 362 361 360 359 358 358 359 360 361 360 360 360 361 361 361 360 360 360 359 358 356 355 354 354 354 356
344 345 349 355 360 363 365 365 364 361 360 360 360 363 366 367 367 367 365 366 370 370 370 370 369 368 368 368 368 368 369 368 368 369 370 370 370 369 368 369 368 367 367 367 366 365 365 365 366 366 366 366 367 367 366 367 365 364 363 363 361 360 359 358 356 356 357 358 358 358 358 359 360 361 361 359 360 359 357 356 355 355 355 356 358
342 343 346 351 356 361 363 364 366 366 365 364 362 363 366 367 367 365 365 368 371 370 371 371 370 369 368 368 368 368 368 369 368 368 369 370 369 368 368 368 368 366 366 366 366 365 366 366 366 367 367 367 367 367 367 367 366 365 363 361 360 360 359 357 356 355 355 357 356 356 356 357 357 358 358 357 357 356 355 355 355 355 357 357 353
341 342 343 346 350 355 357 360 363 364 366 368 367 365 366 366 366 365 366 370 372 372 372 372 371 370 370 368 368 368 368 369 369 367 367 369 369 366 368 370 369 368 368 367 365 367 367 367 366 367 366 368 368 367 367 367 367 366 363 361 360 360 358 358 358 355 354 356 356 355 355 356 356 357 357 356 355 355 354 353 353 354 355 353 347
341 341 342 343 345 348 350 354 358 361 363 366 367 367 367 367 366 366 366 370 372 372 372 372 371 371 370 370 369 368 368 370 369 367 365 364 364 364 367 369 368 368 368 368 367 367 367 366 367 367 366 366 367 368 368 368 367 367 365 363 363 362 359 360 360 356 355 356 356 355 355 356 356 356 356 355 354 353 352 352 351 351 350 346 343
339 340 341 341 343 345 347 348 352 357 360 362 364 364 365 366 368 368 367 370 371 371 370 371 371 371 371 371 369 368 369 369 370 370 367 364 361 361 362 365 367 367 367 366 367 367 366 367 368 367 366 365 365 367 367 368 367 367 366 364 364 362 360 358 358 356 354 355 357 356 355 356 355 355 354 353 353 352 351 350 349 346 344 343 341
Wind_Speed
19 25 28 29 28 28 27 27 28 28 26 27 28 28 26 25 25 23 23 24 22 21 20 18 17 16 15 14 13 12 12 10 9 9 8 7 8 8 8 7 6 7 6 6 5 5 4 4 4 4 4 3 4 4 6 5 3 3 4 4 4 3 3 4 5 4 4 4 3 4 5 4 3 2 2 2 2 3 4 3 3 4 3 3 4
18 22 26 29 29 29 29 27 29 29 28 28 28 29 27 26 26 24 23 24 23 21 20 19 18 16 16 15 14 13 13 12 11 10 9 8 9 9 8 7 7 8 7 7 6 5 5 3 3 3 3 3 4 4 4 4 3 4 4 4 5 3 3 3 4 2 3 4 3 3 5 5 3 2 2 2 3 3 5 5 3 4 4 3 3
17 20 24 29 30 30 29 28 30 30 29 29 29 29 28 27 26 26 24 24 23 21 20 19 18 17 16 15 14 13 13 13 11 10 10 9 9 10 9 8 8 8 8 7 6 6 5 4 4 3 3 3 2 3 4 4 3 4 4 4 4 3 3 4 3 1 2 6 4 1 3 4 3 2 2 2 3 3 3 5 3 3 4 3 2
17 20 22 25 29 30 29 28 30 30 29 30 31 30 29 28 27 27 26 24 23 22 20 19 18 17 15 14 15 12 11 12 11 10 10 10 9 10 10 10 9 8 8 8 7 6 6 5 4 3 3 3 2 2 3 3 3 3 3 3 3 3 3 4 4 3 3 4 2 0 2 3 2 4 5 2 3 4 4 5 3 2 5 3 2
17 20 20 22 25 28 29 29 29 31 31 31 32 31 30 29 28 27 26 25 24 23 21 19 18 17 15 14 14 13 10 11 12 11 11 11 10 10 10 11 10 9 9 8 7 7 6 6 5 4 3 3 3 2 2 2 2 3 3 3 3 3 3 4 5 4 4 4 2 1 1 2 2 3 5 2 1 3 4 4 2 3 5 3 2
16 19 20 21 24 27 29 29 29 31 31 32 32 32 30 30 30 28 27 25 24 24 23 21 19 19 17 16 15 15 13 12 14 13 12 12 11 10 10 11 11 10 9 9 8 7 7 6 5 5 4 3 3 2 2 2 2 2 3 3 3 4 3 3 4 4 5 3 2 2 0 2 3 2 3 2 2 2 1 4 3 2 4 4 3
16 19 21 22 24 27 29 30 31 31 31 31 31 31 31 31 31 30 28 26 25 26 25 23 21 20 19 18 17 17 16 14 15 14 12 12 11 11 10 11 11 11 10 10 9 8 7 7 6 5 4 4 3 2 2 3 2 2 2 2 3 3 3 2 4 4 4 3 2 3 2 3 3 1 2 2 1 3 1 3 5 3 4 6 5
17 19 22 23 24 27 29 31 32 30 30 31 30 31 32 31 32 31 28 27 26 27 27 25 23 21 21 19 17 17 17 15 15 14 12 11 11 11 11 11 11 11 11 10 10 9 8 7 6 6 5 5 4 3 3 3 1 3 2 1 2 2 2 1 2 3 3 3 2 2 3 3 2 1 3 2 0 1 1 2 3 2 2 3 2
17 19 22 23 26 30 32 32 31 30 30 31 30 31 31 31 32 31 29 28 27 28 28 27 24 23 22 20 18 17 17 16 15 15 14 13 12 12 12 11 11 12 11 11 11 10 9 8 7 7 6 5 5 4 4 3 2 2 2 2 1 1 2 2 2 2 2 3 4 1 1 2 1 1 3 2 1 1 1 2 3 1 2 3 1
16 18 22 24 28 32 32 32 31 30 30 30 30 29 30 30 31 32 31 29 28 29 29 28 25 24 22 21 19 18 17 16 16 16 16 15 14 13 13 12 12 12 12 12 12 11 11 10 8 8 7 7 6 5 4 4 4 4 4 3 3 2 2 3 3 3 2 2 4 3 2 2 1 1 2 2 1 1 2 1 1 0 2 3 1
16 19 21 23 27 31 31 31 32 31 30 30 30 29 30 31 31 33 31 29 29 30 30 29 27 25 23 22 21 19 18 17 17 17 17 17 16 15 14 14 13 12 12 13 13 13 12 11 10 9 8 8 7 6 5 5 5 6 5 5 5 4 4 4 3 4 4 3 3 4 4 3 3 2 2 2 1 1 1 2 1 2 3 2 2
16 17 19 20 23 26 28 30 31 31 30 31 31 30 31 31 31 32 31 30 30 31 31 30 28 26 24 22 22 20 19 19 19 19 18 18 18 16 15 15 15 14 13 13 14 14 14 13 11 10 9 8 8 7 6 5 5 5 6 6 6 5 5 5 4 4 4 4 4 5 5 4 4 3 3 3 3 1 1 4 3 3 2 1 3
15 15 16 18 19 20 24 28 30 30 31 32 32 31 31 31 32 33 32 31 30 31 31 31 29 27 25 24 22 21 20 20 20 19 19 19 18 17 17 16 16 15 15 14 14 15 15 14 13 11 11 10 9 8 7 6 5 4 5 6 6 6 6 5 5 5 5 4 4 4 5 4 4 3 2 2 3 3 3 4 3 4 3 2 3
17 15 15 17 18 19 22 27 29 30 31 32 32 31 31 31 32 33 33 32 31 31 32 31 30 28 27 25 23 22 22 21 20 20 20 20 18 18 18 17 16 16 17 16 15 15 15 15 14 13 12 11 10 9 8 7 6 5 5 6 7 7 6 6 6 6 5 5 4 3 3 3 2 3 3 2 3 2 2 2 3 4 5 3 2
16 15 17 18 19 20 23 27 29 30 32 32 32 31 31 31 33 34 33 32 31 31 32 31 30 28 27 26 24 23 23 23 22 20 20 20 19 19 18 17 17 16 16 16 16 16 15 15 14 14 13 12 11 10 9 8 8 7 6 7 7 7 7 7 7 6 6 6 5 4 4 3 2 2 3 2 3 2 2 3 2 2 4 4 3
17 16 18 19 20 22 25 27 29 30 32 32 32 32 32 31 33 35 35 34 33 32 32 31 30 28 28 27 25 24 24 23 22 21 20 20 19 19 19 18 17 16 16 16 17 17 16 15 15 15 14 14 13 12 11 10 9 9 8 8 8 7 7 8 8 7 7 7 6 6 5 5 3 3 3 2 2 2 2 2 2 2 2 3 3
18 17 18 18 19 22 25 27 29 30 32 33 34 34 34 32 33 34 34 34 33 33 32 31 30 29 28 28 26 26 25 24 23 22 21 20 20 19 18 19 18 17 16 17 17 17 17 17 16 15 15 15 14 13 12 11 10 10 9 9 8 8 8 8 9 9 8 7 7 7 7 6 5 5 5 4 3 3 2 3 3 4 3 3 2
17 17 17 17 18 21 25 27 30 32 33 34 34 34 34 33 33 34 35 35 35 33 32 32 31 30 29 29 28 27 26 25 24 23 22 20 20 20 19 19 19 18 18 17 17 18 18 18 17 16 15 15 15 14 13 13 12 11 10 10 9 8 8 8 9 9 9 8 8 7 7 7 6 6 6 6 5 5 5 5 5 5 5 5 4
17 16 14 14 17 21 25 28 30 32 32 33 34 34 33 33 33 34 35 35 35 33 31 32 32 30 29 30 30 29 27 26 24 22 22 21 21 20 20 19 19 19 19 18 18 18 18 18 18 17 17 16 16 15 15 14 14 13 12 11 10 9 9 9 9 9 9 9 8 8 8 8 7 7 7 7 6 6 6 6 6 7 7 7 7
15 16 15 16 18 23 28 30 30 32 32 32 33 34 34 33 33 33 34 34 34 33 32 33 32 30 29 30 31 30 28 26 25 23 22 22 21 21 21 20 19 19 20 19 19 19 19 19 18 18 17 17 17 16 16 15 15 14 13 12 12 11 11 10 10 10 9 9 9 9 9 8 8 7 8 8 7 7 8 7 8 8 8 9 9
15 16 18 18 18 22 28 29 29 30 30 31 32 33 33 33 33 33 34 34 35 34 34 33 33 31 31 31 31 31 29 27 25 24 23 22 22 22 21 21 21 20 20 20 20 20 19 19 19 18 18 18 18 17 17 16 16 15 14 13 12 13 13 11 11 11 11 10 10 10 10 10 9 9 9 9 9 9 9 9 9 9 10 9 9
17 17 18 17 16 19 25 28 27 28 30 31 32 32 33 33 33 34 34 35 35 35 34 33 33 32 32 33 32 31 30 28 26 25 24 23 23 23 22 21 21 21 20 20 21 21 20 20 19 19 18 18 18 18 18 17 17 16 16 15 14 14 14 13 12 12 12 11 11 11 12 11 11 11 11 11 10 10 10 10 10 10 10 10 10
17 18 17 17 17 20 23 26 27 28 30 31 31 32 33 34 33 34 34 35 35 35 34 33 32 33 33 32 32 31 30 29 27 26 26 25 24 23 23 22 22 22 21 21 21 21 21 21 20 19 19 19 18 19 18 18 18 17 17 16 15 15 16 15 14 13 13 12 12 12 13 12 12 12 12 12 11 11 11 11 11 11 10 10 10
17 17 16 17 18 18 18 21 24 26 28 30 31 31 32 32 33 34 35 36 35 34 34 33 33 33 33 32 32 31 31 30 29 27 27 26 25 24 24 24 23 22 22 22 21 21 21 22 21 20 20 20 19 19 19 18 18 18 18 18 17 17 17 17 16 15 14 14 13 14 14 13 12 12 12 12 12 12 12 11 12 11 11 11 12
17 16 17 17 16 15 14 16 20 25 28 30 31 31 31 32 33 34 34 35 35 34 34 34 34 33 34 34 33 32 32 31 31 29 28 28 26 25 25 25 25 24 23 23 22 22 22 22 22 21 21 21 21 20 20 19 18 18 18 18 18 18 17 17 17 17 16 15 15 15 15 14 13 13 13 13 12 12 12 12 12 12 11 12 12
16 16 16 15 14 15 15 15 20 26 27 28 30 30 30 31 32 32 32 33 34 34 34 34 34 34 34 35 34 33 33 33 32 30 29 28 28 26 25 25 25 25 24 23 23 23 23 23 22 22 22 22 21 21 21 20 19 19 19 19 18 18 18 18 18 17 17 17 16 16 16 15 15 14 14 13 13 13 13 13 13 13 12 11 12
10 10 10 10 11 16 17 17 21 25 26 27 29 29 29 30 30 30 30 32 33 33 34 34 33 34 35 35 35 35 34 33 33 31 29 28 28 27 26 25 25 25 25 24 24 24 24 24 23 23 23 23 22 22 21 21 21 20 20 19 19 19 19 18 18 18 18 17 17 17 17 17 17 16 15 14 14 14 14 14 14 13 12 12 13
5 6 7 7 9 14 15 16 20 24 25 26 28 29 29 29 30 30 29 31 32 33 34 34 33 33 34 35 36 35 34 33 32 31 29 28 28 28 27 26 25 25 26 25 25 24 24 24 24 24 23 23 23 22 22 22 22 21 20 20 20 20 19 19 18 18 18 18 18 18 18 18 18 18 17 16 15 14 14 14 14 13 12 12 13
9 8 9 9 10 12 14 16 19 23 25 25 26 28 28 28 29 30 30 31 32 32 33 33 33 33 34 34 34 33 32 32 31 31 30 28 28 28 27 26 25 25 25 25 25 24 24 23 24 24 24 23 23 23 23 23 23 22 22 21 21 20 20 19 18 18 18 18 18 18 18 19 19 19 19 18 18 16 15 14 13 12 12 13 13
6 7 8 10 11 12 14 15 16 20 23 24 25 26 28 29 30 31 31 31 31 32 33 33 33 33 32 32 32 31 31 32 31 31 31 29 28 28 28 27 26 25 25 25 25 25 24 24 24 24 24 24 24 23 25 27 26 25 23 22 22 21 21 20 19 18 18 18 18 19 19 19 19 20 21 22 22 21 20 19 16 13 12 12 13
5 3 1 3 7 10 12 14 15 19 23 23 24 26 28 29 29 31 31 31 32 32 32 32 31 31 31 31 31 31 31 32 31 30 31 30 28 28 28 28 27 26 25 25 25 25 25 24 24 24 24 24 24 24 27 30 30 28 25 22 22 22 21 21 20 19 19 19 19 19 19 19 19 20 22 23 25 25 25 25 23 21 19 17 17
7 8 8 6 6 9 12 15 17 20 24 24 24 25 27 28 30 32 32 31 32 32 31 31 30 30 31 31 31 31 31 31 31 30 30 30 29 28 28 28 27 26 25 24 25 25 25 24 24 24 24 24 23 25 28 31 32 31 28 24 21 21 21 20 21 21 20 19 19 19 19 19 19 20 21 22 24 26 26 26 25 24 23 22 23
9 9 9 9 8 7 9 14 18 21 24 26 27 26 27 29 29 30 31 30 30 31 31 30 29 29 30 31 31 31 31 31 31 31 30 30 29 28 28 28 27 26 25 24 25 25 25 24 23 23 24 23 23 24 28 31 32 33 32 27 22 20 21 20 20 21 20 20 19 19 19 19 19 20 21 20 19 20 21 21 20 20 20 21 23
9 9 8 9 9 8 10 11 15 21 24 26 28 27 27 27 27 28 29 29 29 29 30 30 29 29 30 30 30 30 30 31 31 30 29 29 30 29 27 26 26 25 24 24 24 24 25 25 24 23 23 23 23 24 27 30 31 32 33 32 25 19 19 20 19 20 20 20 20 19 19 19 19 20 20 19 18 17 16 16 17 18 19 20 21
9 9 9 9 9 9 12 14 15 19 23 25 26 27 27 26 28 29 30 29 29 29 29 29 29 29 30 31 31 30 29 30 30 30 29 29 29 28 27 26 25 25 24 24 24 24 24 25 25 24 23 22 22 24 26 28 30 30 31 33 29 21 18 18 19 19 19 19 20 20 19 19 19 20 21 20 18 16 15 15 15 16 17 19 20
11 11 11 11 11 12 13 14 16 18 21 25 27 28 28 27 28 30 30 30 29 28 29 29 29 30 30 32 32 31 30 29 29 29 29 29 29 28 27 25 24 24 24 23 23 24 24 24 25 25 24 23 23 24 25 26 28 28 28 30 30 24 20 19 19 19 20 20 19 20 20 20 20 21 23 23 22 19 15 14 15 16 16 17 18
13 14 15 15 15 15 15 15 16 18 20 24 27 28 28 28 28 29 30 30 30 29 30 30 30 30 31 31 32 31 30 29 29 29 28 28 28 27 27 25 24 24 24 23 23 23 23 24 24 25 25 25 24 25 27 27 27 27 27 29 28 24 21 21 20 20 20 20 21 21 21 21 21 22 24 25 25 23 20 16 16 16 16 17 18
15 16 17 19 17 16 17 16 15 18 20 22 26 28 28 28 28 29 30 31 31 31 31 31 31 31 31 31 31 30 29 29 29 29 28 28 27 26 26 25 24 24 24 24 23 23 23 24 25 26 26 25 25 27 29 30 30 29 29 30 28 23 21 21 21 21 21 21 22 24 24 23 22 22 24 25 25 25 22 19 18 17 17 18 18
17 17 18 19 20 19 20 20 16 17 20 21 25 29 29 28 29 30 31 31 32 33 32 32 32 31 30 30 30 30 30 29 29 29 28 27 27 26 25 25 24 24 24 24 23 23 23 24 24 25 27 26 25 27 29 31 32 32 32 31 27 23 21 21 20 20 21 21 22 24 27 28 27 24 24 24 25 26 24 20 18 17 18 18 17
19 19 19 20 21 19 18 18 16 16 20 22 25 28 28 28 29 30 31 32 33 34 33 31 31 30 29 29 29 30 30 29 29 28 27 26 26 25 24 24 24 23 23 23 24 23 23 24 23 24 26 26 25 25 28 31 32 33 34 33 28 23 21 21 20 20 20 21 22 23 25 29 31 30 29 27 26 26 25 22 20 18 17 16 14
19 20 21 21 19 18 17 16 15 15 18 21 25 26 26 27 28 28 30 32 32 31 30 30 30 29 29 29 28 29 29 28 27 27 26 25 25 24 24 24 23 22 22 22 23 23 23 23 23 23 23 24 25 25 26 29 32 33 34 34 29 23 21 21 20 20 20 20 21 22 23 26 30 31 32 31 30 30 29 27 24 21 18 15 12
19 19 21 20 17 17 16 14 13 14 17 21 24 24 23 24 26 28 30 30 29 29 29 29 29 29 28 28 28 28 27 26 25 26 26 25 25 24 24 23 22 21 21 21 21 22 22 21 22 22 22 22 24 25 26 27 29 32 33 34 31 26 23 22 20 20 21 21 21 21 22 23 26 27 27 28 29 31 33 32 31 28 23 19 17
18 18 19 20 18 17 14 13 13 14 17 21 23 22 22 23 25 27 27 26 26 28 29 28 28 28 28 27 27 27 26 25 25 26 26 25 25 24 23 23 22 21 21 21 20 20 20 20 20 20 21 20 21 23 26 27 28 29 31 34 33 29 26 24 22 21 21 21 20 20 20 21 23 24 23 23 24 26 30 33 33 31 27 24 23
18 19 20 21 19 15 13 12 13 13 16 19 22 21 20 22 23 23 23 24 25 27 27 27 27 27 27 26 25 26 25 24 24 25 25 24 24 23 22 22 22 21 20 20 20 20 19 19 19 19 19 20 20 21 24 26 27 27 29 31 32 31 30 27 24 21 21 21 20 20 21 21 21 21 21 21 21 22 23 26 27 26 24 24 23
17 18 20 22 17 10 9 9 11 13 14 16 20 21 20 20 21 22 22 23 24 26 26 25 26 26 25 25 24 24 24 23 23 24 24 23 23 23 22 22 21 21 20 20 20 20 19 18 19 18 18 20 21 20 22 25 26 27 28 29 30 31 32 32 27 22 20 19 17 17 19 19 20 19 20 21 21 20 19 19 20 20 20 20 18
17 19 21 22 15 6 5 6 7 11 15 16 18 20 20 19 20 21 22 23 23 24 24 23 24 24 25 24 23 23 23 22 22 23 22 22 22 22 21 21 21 21 20 20 20 20 19 19 19 18 18 19 20 20 20 23 26 27 28 29 30 31 32 33 31 26 22 18 15 14 14 14 15 18 19 20 20 18 17 16 17 18 18 16 13
17 19 20 20 16 9 4 4 3 4 10 15 17 18 18 20 21 22 23 23 23 23 22 22 22 23 23 24 23 22 22 22 22 22 21 21 21 21 21 21 22 21 21 20 20 20 20 19 19 18 18 18 19 20 20 21 25 30 32 31 31 31 31 33 34 31 26 20 16 14 13 11 13 16 18 18 19 18 16 16 16 17 16 13 11
17 19 19 17 16 14 12 8 5 3 1 7 13 15 16 19 21 22 23 23 22 22 21 21 22 22 22 23 22 22 21 21 21 22 20 20 21 21 21 22 22 21 21 21 21 20 20 20 19 19 19 19 19 21 22 20 22 28 33 33 33 32 32 33 35 32 26 20 17 15 14 13 13 15 16 15 16 16 16 14 14 14 14 12 11
15 17 18 17 16 17 18 15 11 8 7 2 5 10 14 17 19 21 22 23 22 21 21 21 21 21 21 21 21 21 21 20 21 20 18 17 18 19 20 20 21 22 22 20 21 21 20 20 20 19 19 20 20 20 21 20 20 22 26 30 32 32 31 32 32 30 25 21 19 17 16 16 16 16 17 17 16 15 14 13 13 13 13 12 11
15 17 18 18 18 18 19 19 16 11 8 7 5 2 6 12 16 19 21 22 21 21 21 22 21 20 20 20 20 20 20 20 20 19 17 16 15 15 16 16 18 22 23 20 19 19 18 19 19 16 14 16 17 15 15 17 19 20 21 24 26 27 26 27 30 30 27 23 21 20 20 21 21 20 21 20 19 17 15 15 15 14 13 11 10
15 18 19 19 19 20 20 22 20 15 12 12 12 9 5 1 6 13 18 20 20 20 20 20 19 18 19 20 19 19 19 19 20 19 19 18 15 13 12 12 13 17 20 19 17 15 14 15 16 14 12 12 11 9 10 14 17 19 21 22 20 19 19 21 25 29 28 25 23 22 22 23 23 22 22 21 20 19 18 17 16 13 11 9 9
Wind_Direction
181 184 184 182 181 180 181 181 182 184 181 179 179 180 182 179 178 180 179 179 177 176 180 182 183 184 187 191 191 192 194 196 199 199 198 190 177 173 178 186 191 194 200 197 196 203 187 165 164 168 156 127 103 91 71 70 92 82 82 77 65 83 100 103 97 90 114 122 128 125 105 99 102 108 121 119 127 133 132 129 134 142 139 147 152
181 183 184 183 181 180 181 182 183 184 181 181 181 181 183 181 179 179 178 179 180 180 181 184 186 186 188 193 195 193 193 197 200 202 206 195 179 181 183 186 193 196 202 206 209 212 202 189 181 181 176 142 133 136 106 93 110 91 86 85 73 81 79 84 97 107 153 122 104 128 117 101 88 98 116 124 135 138 138 132 131 141 122 120 140
183 183 184 183 182 180 181 182 183 184 182 181 182 182 183 183 181 179 179 180 181 181 182 184 187 188 189 194 198 197 192 197 203 201 206 204 187 188 194 192 195 199 203 206 212 215 206 201 196 191 192 172 157 150 125 112 113 91 82 82 80 97 95 100 105 39 77 103 103 143 130 116 99 120 138 138 130 123 140 136 121 125 112 102 149
185 185 186 184 182 181 181 182 182 183 182 182 183 182 183 184 181 180 180 180 181 181 181 183 184 186 190 194 200 205 196 192 200 201 202 208 197 191 198 199 199 204 206 208 209 212 207 203 203 199 197 188 176 157 136 130 131 110 93 92 91 97 105 112 109 72 61 96 127 167 129 131 132 140 137 141 145 140 147 132 122 144 127 134 203
190 187 187 185 184 183 182 182 182 183 183 184 184 183 184 184 181 179 180 180 181 181 179 179 178 180 185 190 196 205 202 187 193 201 198 205 206 198 199 201 203 205 208 211 210 210 208 207 208 206 202 196 193 188 171 153 139 118 101 105 109 99 100 107 112 110 85 68 67 60 127 100 61 84 96 44 308 146 140 123 125 163 138 155 225
194 190 188 188 186 184 184 183 184 185 185 185 184 184 183 183 181 179 180 181 182 181 178 176 176 177 180 184 187 194 197 189 193 201 199 203 210 208 202 200 203 205 207 211 211 210 210 207 209 214 211 204 209 204 181 181 165 128 105 106 104 94 94 107 117 112 101 101 109 116 103 55 49 38 67 49 351 13 130 145 149 166 151 165 200
196 198 193 190 187 184 184 185 187 187 185 185 184 185 183 182 181 180 180 181 181 180 178 177 177 179 182 186 188 189 193 193 196 203 206 207 211 211 205 201 203 205 207 210 210 211 212 210 207 213 219 212 216 219 210 216 181 140 117 93 88 93 101 117 127 114 113 154 150 124 110 43 50 63 56 87 89 10 340 172 159 169 190 188 184
196 202 195 189 186 186 185 186 188 187 185 184 185 185 184 182 181 180 180 180 181 181 180 180 180 180 184 188 192 194 198 199 198 202 210 210 208 209 206 201 201 204 207 209 209 210 211 213 210 210 220 218 212 215 226 237 164 133 147 119 89 115 141 151 129 126 139 149 125 112 120 88 85 114 75 57 25 2 276 176 141 133 181 170 156
195 202 198 189 185 187 186 186 188 188 185 185 186 185 184 182 181 180 180 180 181 181 180 182 182 182 185 189 193 198 203 205 202 203 206 207 205 204 204 200 197 201 206 208 208 210 211 213 213 212 217 216 215 218 216 220 192 169 184 188 192 181 177 177 152 155 174 135 128 144 124 121 185 148 124 141 314 339 338 94 106 115 110 90 38
197 207 203 190 184 186 186 184 186 188 187 185 185 185 183 183 181 181 182 181 181 181 181 183 184 184 186 190 193 196 202 205 204 201 199 201 202 200 200 200 198 199 204 208 208 209 211 213 214 215 217 215 215 220 211 205 203 199 205 210 212 213 207 194 174 172 183 140 144 161 160 150 167 158 164 166 108 342 316 1 67 41 103 111 66
197 210 205 189 185 185 184 184 186 187 186 184 185 185 183 183 182 182 182 182 182 181 181 183 184 185 187 190 193 195 198 202 202 199 195 195 198 198 198 199 201 203 203 206 207 208 210 212 214 216 217 217 213 214 213 206 206 204 205 212 215 219 222 214 198 184 178 182 178 168 183 193 173 184 192 146 147 240 286 303 330 31 42 90 83
198 209 202 187 184 185 185 186 185 186 186 184 185 185 183 184 183 182 183 182 182 182 182 184 184 186 188 190 193 195 196 200 202 199 194 193 196 196 196 197 201 205 206 206 206 207 209 210 213 215 215 216 211 209 211 210 210 204 199 207 215 219 223 221 215 206 188 191 198 181 193 207 184 198 205 167 182 186 332 292 315 27 1 30 63
199 207 201 188 183 185 186 185 184 186 187 185 185 184 183 184 182 182 183 182 182 182 183 184 185 187 188 190 193 194 197 201 203 201 196 194 195 195 195 196 198 202 205 207 206 205 205 207 209 210 212 214 211 208 207 209 215 209 201 207 215 218 222 225 222 220 207 204 214 199 202 210 187 197 225 203 193 170 202 262 327 2 321 355 40
196 200 199 192 184 185 187 185 185 187 188 187 186 185 183 182 182 183 183 182 181 182 183 184 186 186 186 189 192 194 199 203 205 205 201 197 196 197 198 198 199 200 202 204 205 204 203 204 205 206 208 209 207 207 206 206 211 213 213 215 219 220 223 228 231 231 224 218 223 228 233 233 206 198 202 216 240 226 229 286 1 339 307 324 350
192 196 201 195 184 185 186 185 186 187 188 188 187 186 185 183 183 182 183 183 182 182 183 184 184 184 185 188 192 195 200 204 206 206 204 201 199 200 201 202 202 202 201 201 200 202 201 201 202 204 204 205 204 204 205 207 209 211 216 220 223 223 223 230 236 236 233 228 220 225 245 250 240 240 226 225 269 297 324 347 1 318 307 317 321
185 194 202 193 183 185 186 187 187 187 189 189 187 187 186 185 183 183 183 183 182 182 182 183 182 183 185 188 192 196 198 201 204 205 205 204 202 201 201 203 206 203 200 199 196 197 199 198 201 202 201 203 204 203 204 207 209 212 214 218 223 224 225 230 236 238 236 234 227 221 233 246 242 250 263 264 278 307 329 330 298 272 288 300 314
179 190 199 189 183 186 187 189 188 188 189 189 188 187 186 185 183 183 183 182 184 183 182 181 181 182 184 187 192 196 197 199 201 202 203 203 202 202 201 202 205 203 199 198 195 195 196 197 199 201 201 204 205 204 206 206 209 214 215 217 220 224 226 228 234 240 239 237 234 223 223 238 242 240 254 257 247 255 265 257 252 251 251 269 287
179 188 194 188 185 185 187 190 190 191 191 190 189 187 186 186 184 183 183 182 184 184 182 181 180 181 184 188 192 195 197 199 201 200 200 201 200 200 201 201 201 202 200 197 195 195 196 197 197 199 201 204 205 205 206 206 208 213 216 218 220 221 224 227 231 237 240 240 239 233 226 230 234 233 240 242 230 225 236 238 241 241 230 236 259
182 184 190 195 191 185 188 191 191 192 192 191 189 187 187 187 185 185 185 184 184 183 182 181 181 183 185 188 191 194 196 198 199 199 198 199 200 198 200 201 199 200 199 196 195 195 196 196 197 199 201 202 203 203 203 204 207 211 216 219 219 218 220 224 227 232 237 239 238 238 236 234 236 238 243 245 231 219 228 235 233 235 232 232 244
183 177 186 202 200 190 189 191 191 191 192 191 190 189 189 188 187 187 186 184 184 183 182 182 183 185 185 187 190 193 195 197 197 197 196 197 199 198 199 199 198 198 197 195 196 196 195 197 198 200 203 202 200 200 200 201 204 209 215 219 218 215 217 221 227 229 232 234 235 237 237 236 236 239 245 249 241 226 226 234 236 235 235 232 236
187 179 184 197 205 197 190 191 191 190 189 191 192 191 191 189 188 187 186 185 185 185 184 183 184 184 184 186 189 192 194 195 196 196 196 196 197 198 198 198 198 198 197 196 197 197 196 198 200 202 204 203 200 199 199 199 202 206 211 218 217 213 214 219 224 228 231 233 233 235 236 236 235 238 242 245 245 236 227 232 240 240 239 238 234
190 187 183 189 205 205 193 189 190 189 189 191 192 192 192 192 190 188 187 187 187 186 185 184 183 184 185 186 188 190 192 194 195 195 196 197 196 197 198 197 197 197 197 197 197 198 198 199 201 202 203 203 200 199 200 199 201 204 207 213 216 213 212 217 220 225 230 232 233 234 235 235 234 236 240 243 246 243 236 234 237 238 242 244 239
196 195 187 186 202 206 192 185 188 190 189 190 192 193 194 193 191 188 188 188 187 187 185 183 183 184 185 185 186 188 190 192 195 196 197 198 196 196 196 196 197 197 197 198 198 199 199 199 201 201 200 201 199 199 201 201 202 204 207 211 213 212 212 215 220 223 226 230 232 234 235 234 233 233 235 240 245 246 246 246 244 244 247 249 249
199 201 194 190 197 199 190 184 187 189 189 190 192 194 194 194 192 191 191 189 187 186 184 182 183 184 184 185 186 188 190 192 195 196 198 199 197 196 195 196 198 198 197 197 198 199 198 198 201 201 198 199 199 199 201 204 204 204 207 211 212 212 213 215 219 223 225 228 230 233 235 234 233 233 232 236 240 243 245 247 248 248 250 253 255
195 200 202 197 189 186 186 183 185 189 190 190 191 193 194 194 194 193 191 189 186 185 184 183 184 184 184 186 187 189 191 193 195 197 198 199 199 197 195 196 198 200 199 196 197 198 197 196 199 199 198 198 199 200 201 204 206 206 208 211 212 213 215 216 218 221 224 227 230 233 234 234 233 232 232 234 237 240 242 244 245 245 246 250 252
188 196 206 202 182 176 184 181 184 190 190 189 191 193 194 195 196 194 191 189 187 185 184 183 184 185 185 187 188 190 192 193 195 197 198 198 200 199 196 196 198 200 200 197 196 197 197 196 197 198 198 198 199 200 202 205 207 208 208 211 214 215 216 217 218 220 222 226 231 233 234 235 234 233 232 234 236 239 241 242 244 245 246 246 249
178 193 208 208 177 170 179 180 184 191 190 189 191 193 195 195 195 196 192 189 188 186 184 183 184 186 186 187 189 191 193 194 194 196 197 198 200 199 198 196 197 199 200 199 197 196 197 196 196 197 198 198 199 200 202 204 207 209 208 211 214 215 217 219 220 221 223 226 229 232 234 234 234 233 233 234 235 236 240 244 245 246 246 245 248
170 194 202 206 179 167 177 183 185 190 191 191 192 193 194 194 193 195 194 191 189 187 185 184 184 186 186 187 189 190 192 193 193 195 197 199 200 200 198 196 196 198 200 201 200 197 196 196 196 197 198 198 199 199 201 202 205 208 209 210 213 215 217 219 221 223 225 228 231 233 235 234 234 233 231 231 234 235 239 244 245 245 244 244 247
179 190 191 200 193 176 179 185 187 191 193 193 193 193 194 193 192 194 194 192 189 187 186 185 185 186 186 186 187 189 191 192 193 194 197 199 199 199 199 196 195 198 199 201 203 200 197 196 197 197 198 199 199 200 201 201 202 205 208 210 212 213 216 218 220 224 225 228 232 235 238 237 236 235 232 229 230 231 233 240 243 243 242 242 245
164 180 186 192 196 187 183 186 190 194 195 195 193 192 194 194 192 193 194 191 188 188 188 187 186 187 185 184 185 186 188 190 191 193 195 197 198 198 198 197 196 197 199 200 203 203 201 198 197 197 198 199 201 202 202 203 203 203 205 209 211 212 215 217 219 223 225 227 231 236 241 242 240 240 238 235 234 233 234 238 239 238 238 241 246
10 346 299 204 205 199 190 190 194 196 198 199 195 193 195 195 193 193 194 191 188 188 188 188 187 186 183 182 183 184 186 187 189 190 192 194 197 197 198 198 196 197 199 199 200 203 205 202 200 199 199 201 204 204 204 206 207 206 204 207 211 211 213 216 217 220 223 227 231 235 240 243 243 242 241 241 242 242 244 247 247 245 242 240 242
339 337 337 318 255 219 201 198 201 200 199 200 199 195 195 196 194 193 193 191 189 188 188 188 187 185 183 182 182 183 184 184 186 187 188 191 195 197 198 198 197 197 197 198 199 202 205 205 204 203 203 204 206 206 207 209 211 211 207 206 210 212 212 214 216 218 221 225 229 233 238 241 242 241 240 240 242 246 249 252 253 254 251 245 240
319 324 322 308 288 256 221 210 206 205 204 202 200 197 197 197 195 192 192 191 189 188 188 187 187 185 183 182 181 181 182 183 183 184 185 187 191 195 197 197 197 197 196 198 200 201 203 206 207 207 207 208 210 209 209 211 213 214 211 207 209 213 214 215 217 218 221 223 225 229 235 239 242 244 242 237 236 242 249 252 254 254 254 251 244
309 315 311 305 308 304 285 259 227 214 211 207 202 199 198 196 192 191 192 192 189 187 187 187 187 186 184 183 182 181 181 182 182 182 183 185 189 193 195 195 196 196 196 199 200 201 202 204 207 209 209 211 213 212 211 212 215 217 215 210 210 214 218 219 220 220 221 223 223 225 230 235 239 242 242 236 230 232 239 247 250 250 251 253 251
307 309 306 301 301 292 285 282 260 230 216 209 206 200 196 193 190 189 191 191 188 186 186 186 187 186 185 186 185 184 182 181 181 181 182 185 187 190 192 194 196 198 198 199 200 201 202 203 205 208 210 212 216 216 213 214 216 219 218 215 215 219 224 224 223 223 223 224 223 224 227 232 235 237 239 238 234 229 229 234 239 242 246 248 249
311 308 304 300 297 287 276 274 270 251 224 209 206 202 194 191 189 187 189 189 187 185 185 185 187 187 186 187 188 187 184 181 181 182 183 185 187 188 190 193 197 201 201 200 201 203 203 203 204 207 210 213 217 218 217 216 217 218 218 216 217 221 227 228 228 226 225 225 224 224 226 230 232 236 239 240 239 235 231 231 236 240 243 245 247
311 309 306 301 296 290 283 270 260 255 235 211 203 201 194 189 188 187 187 187 187 186 185 185 187 187 186 187 188 188 185 182 182 183 184 186 186 187 189 192 196 201 203 202 203 205 205 205 205 206 209 213 217 220 220 218 217 216 214 213 214 217 223 227 229 229 227 226 226 225 226 228 230 234 239 242 243 240 236 236 240 244 247 250 251
314 310 305 303 302 300 297 283 258 247 240 218 200 196 192 187 186 185 185 186 187 187 186 185 187 187 186 187 188 186 184 183 184 185 186 186 186 186 188 191 195 202 206 207 207 208 209 209 208 208 209 211 216 220 220 218 217 215 213 211 210 212 218 223 226 228 227 227 228 227 226 227 229 234 238 242 244 242 238 237 241 243 245 249 251
314 309 305 308 311 308 300 288 265 242 237 222 199 192 191 187 185 184 184 187 188 187 187 186 186 186 186 187 188 186 185 185 185 187 187 186 186 188 189 191 197 203 208 211 211 212 213 213 213 213 211 211 216 220 219 217 216 216 214 210 207 209 215 218 221 225 225 226 228 229 228 228 229 232 236 239 243 243 238 235 238 241 242 245 250
314 313 314 312 309 301 288 276 260 241 232 218 199 192 191 187 185 184 185 189 190 188 187 186 184 184 186 187 188 187 186 187 187 187 188 188 188 189 190 193 198 203 208 212 214 215 218 218 218 218 215 213 215 219 219 217 215 216 216 211 206 207 212 214 217 222 224 225 226 227 230 232 231 232 233 235 239 241 239 236 234 238 242 245 247
316 316 317 310 301 296 286 270 256 241 226 212 199 193 190 187 185 186 189 191 190 187 184 183 183 184 186 187 187 187 187 187 187 186 187 188 188 190 191 192 197 202 205 211 214 217 220 221 221 221 220 217 215 217 219 218 216 216 216 212 207 207 210 212 216 221 223 226 226 226 229 232 234 235 235 236 237 239 240 239 236 237 242 245 247
318 317 316 310 300 294 285 266 249 234 217 207 200 193 188 185 186 190 193 191 186 183 182 182 182 184 185 185 186 186 185 187 187 185 185 187 188 190 191 192 197 201 202 206 211 214 219 222 222 222 223 221 218 216 217 219 217 217 217 215 211 209 209 211 216 220 223 227 228 227 228 232 234 236 237 238 239 239 241 243 243 243 244 246 253
321 319 317 315 307 294 281 261 242 225 212 205 198 190 186 186 189 193 193 188 183 182 181 180 180 182 183 183 184 183 183 186 187 185 185 186 187 189 190 191 194 196 198 202 205 209 214 219 221 221 220 220 219 216 216 218 218 217 217 217 216 214 210 212 217 221 224 228 231 232 231 232 234 236 237 240 243 244 244 246 248 250 251 253 257
323 320 321 320 307 285 267 254 237 218 205 200 195 189 186 188 191 194 192 187 183 180 179 179 179 179 180 181 181 180 182 185 186 184 184 184 185 186 188 190 192 194 197 200 201 204 210 215 218 220 218 217 217 217 218 219 218 217 217 218 219 218 214 213 219 225 229 232 234 234 235 235 236 237 237 239 245 248 248 248 251 254 256 258 259
325 326 329 327 312 278 256 256 234 207 194 196 196 193 190 191 192 192 190 186 181 178 178 178 178 178 178 178 178 178 181 184 184 182 182 184 184 186 187 188 191 194 196 199 200 202 206 211 217 219 219 219 219 218 221 222 220 219 219 218 221 222 218 215 217 225 235 240 239 235 234 235 236 234 232 235 240 246 248 249 251 252 253 256 256
338 339 337 337 333 307 274 285 247 201 190 194 199 197 193 194 193 190 187 183 178 175 177 177 176 177 176 176 176 176 179 183 183 183 184 185 184 186 187 188 190 194 198 200 202 204 206 209 214 218 219 220 219 217 219 220 218 217 219 220 221 221 220 218 217 220 230 242 247 242 235 231 226 223 224 229 234 241 248 249 247 247 247 248 246
340 340 341 346 354 1 354 329 302 202 189 195 199 199 196 194 194 191 186 181 175 174 175 175 175 175 175 175 175 174 177 182 184 184 185 186 187 188 189 189 192 195 198 201 203 205 206 206 209 214 216 218 218 217 217 216 212 212 215 218 218 218 218 218 217 219 225 236 243 241 235 228 220 215 217 224 229 236 245 246 243 241 238 235 231
341 346 351 356 2 14 24 22 14 11 308 210 202 199 196 194 194 192 184 176 174 172 172 173 174 173 174 175 173 174 178 182 184 185 186 187 190 192 192 192 195 198 199 201 203 204 205 206 207 209 212 215 218 219 218 212 205 207 210 211 212 212 213 214 215 216 219 227 234 235 228 221 217 213 214 221 227 233 239 239 235 232 228 221 213
351 358 2 3 6 13 20 23 28 28 12 343 198 193 192 191 192 189 180 175 174 172 172 175 174 173 174 173 172 176 181 183 183 183 182 181 186 192 194 192 195 200 203 203 202 203 206 208 210 211 213 216 219 221 221 216 206 204 205 206 207 208 209 212 214 211 209 212 216 218 215 212 213 215 218 222 226 229 229 227 224 222 217 211 200
2 12 11 10 12 13 13 15 19 28 37 39 43 97 180 189 191 186 179 176 175 174 175 177 175 172 172 171 173 178 182 186 185 177 167 164 170 181 189 187 188 196 202 203 202 203 206 209 212 215 218 222 222 220 218 212 204 197 194 198 205 207 206 211 213 207 203 204 203 205 213 215 214 216 219 221 222 222 221 219 216 212 207 202 191
3 20 18 14 15 15 13 12 11 20 41 47 40 41 55 147 199 189 182 178 176 177 178 178 175 172 169 169 174 179 181 188 190 177 163 160 160 164 176 181 180 188 197 201 200 198 197 199 202 203 205 211 210 202 197 193 189 186 184 187 196 197 195 205 209 201 198 202 202 203 211 214 212 214 217 216 218 219 219 216 208 198 195 197 189